TimePST,TemperatureF,Dew PointF,Humidity,Sea Level PressureIn,VisibilityMPH,Wind Direction,Wind SpeedMPH,Gust SpeedMPH,PrecipitationIn,Events,Conditions,WindDirDegrees,DateUTC
12:51 AM,54.0,41.0,62,30.06,10.0,Calm,Calm,-,N/A,,Partly Cloudy,0,2012-12-11 08:51:00
1:51 AM,53.1,42.1,66,30.06,10.0,North,3.5,-,N/A,,Partly Cloudy,350,2012-12-11 09:51:00
2:51 AM,52.0,37.9,59,30.06,10.0,Calm,Calm,-,N/A,,Partly Cloudy,0,2012-12-11 10:51:00
3:51 AM,51.1,39.9,66,30.05,10.0,Calm,Calm,-,N/A,,Partly Cloudy,0,2012-12-11 11:51:00
4:51 AM,51.1,37.0,59,30.04,10.0,Calm,Calm,-,N/A,,Partly Cloudy,0,2012-12-11 12:51:00
5:51 AM,51.1,37.0,59,30.05,10.0,Calm,Calm,-,N/A,,Partly Cloudy,0,2012-12-11 13:51:00
6:51 AM,52.0,36.0,54,30.06,10.0,NNW,3.5,-,N/A,,Scattered Clouds,340,2012-12-11 14:51:00
7:51 AM,55.0,36.0,49,30.06,10.0,Calm,Calm,-,N/A,,Scattered Clouds,0,2012-12-11 15:51:00
8:51 AM,59.0,37.0,44,30.06,10.0,Calm,Calm,-,N/A,,Scattered Clouds,0,2012-12-11 16:51:00
9:51 AM,63.0,36.0,37,30.06,10.0,Calm,Calm,-,N/A,,Scattered Clouds,0,2012-12-11 17:51:00
10:51 AM,69.1,33.1,26,30.04,10.0,NNW,3.5,-,N/A,,Scattered Clouds,330,2012-12-11 18:51:00
11:51 AM,68.0,39.9,36,30.01,10.0,NW,6.9,-,N/A,,Scattered Clouds,310,2012-12-11 19:51:00
12:51 PM,66.0,50.0,56,29.99,8.0,WNW,9.2,-,N/A,,Scattered Clouds,300,2012-12-11 20:51:00
1:51 PM,64.9,54.0,68,29.98,8.0,WNW,11.5,-,N/A,,Partly Cloudy,300,2012-12-11 21:51:00
2:51 PM,64.9,55.9,73,29.97,7.0,WNW,10.4,-,N/A,,Partly Cloudy,300,2012-12-11 22:51:00
3:26 PM,64.4,55.4,73,29.98,10.0,NW,8.1,-,N/A,,Scattered Clouds,310,2012-12-11 23:26:00
3:51 PM,64.0,55.9,75,29.98,9.0,WNW,9.2,-,N/A,,Scattered Clouds,290,2012-12-11 23:51:00
4:51 PM,62.1,55.9,80,29.99,7.0,Variable,3.5,-,N/A,,Scattered Clouds,0,2012-12-12 00:51:00
5:51 PM,61.0,57.0,87,29.99,7.0,Calm,Calm,-,N/A,,Partly Cloudy,0,2012-12-12 01:51:00
6:51 PM,61.0,55.9,83,30.00,6.0,Calm,Calm,-,N/A,,Partly Cloudy,0,2012-12-12 02:51:00
7:51 PM,59.0,55.9,90,30.01,6.0,Calm,Calm,-,N/A,,Partly Cloudy,0,2012-12-12 03:51:00
7:53 PM,59.0,55.4,88,30.01,6.0,Calm,Calm,-,N/A,,Partly Cloudy,0,2012-12-12 03:53:00
8:24 PM,59.0,55.4,88,30.01,5.0,Calm,Calm,-,N/A,,Mostly Cloudy,0,2012-12-12 04:24:00
8:51 PM,60.1,57.0,90,30.01,6.0,SE,3.5,-,N/A,,Mostly Cloudy,130,2012-12-12 04:51:00
9:51 PM,60.1,55.9,86,30.01,9.0,Calm,Calm,-,N/A,,Mostly Cloudy,0,2012-12-12 05:51:00
10:03 PM,60.8,55.4,82,30.02,9.0,Calm,Calm,-,N/A,,Mostly Cloudy,0,2012-12-12 06:03:00
10:51 PM,59.0,55.9,90,30.02,6.0,SSE,4.6,-,N/A,,Mostly Cloudy,160,2012-12-12 06:51:00
11:43 PM,59.0,53.6,82,30.02,7.0,ESE,4.6,-,N/A,,Mostly Cloudy,110,2012-12-12 07:43:00
11:51 PM,59.0,54.0,83,30.02,7.0,ESE,4.6,-,N/A,,Mostly Cloudy,110,2012-12-12 07:51:00